Powrót do katalogu

STARLINK-34773

AktywnyŁącznośćVLEO
NORAD 65024·PAYLOAD·🇺🇸 United States

Wystrzelony Jul 30, 2025 z Cape Canaveral Space Force Station

Loading…

Następne Przeloty (najbliższe 24 godziny)

TLE

ŚwieżeSource: CelesTrak SupGP

Epoka: Sep 14, 2026, 21:34 UTC

1 65024C 25161K   26257.89909722 -.00057020  00000+0 -16846-2 0  2579
2 65024  53.1574 131.7137 0001257  87.2469 137.5842 15.34420347    12

Śledź STARLINK-34773 w czasie rzeczywistym z AllMySat

Download on the App Store